This is the latest recevied weather packets stored in our database for station/object N7WSS. If no packets are shown the sender has not sent any weather packets the latest 10 day(s).
| Time | Temp. | Humidity | Pressure | Rain* | Wind** | Luminosity | Snow |
|---|---|---|---|---|---|---|---|
| 1777218384 | 21.67° C | 26% | 1009 hPa | 0 mm | - | - | - |
| 1777218080 | 21.67° C | 26% | 1009.1 hPa | 0 mm | - | - | - |
| 1777217776 | 21.67° C | 26% | 1009 hPa | 0 mm | - | - | - |
| 1777217472 | 21.67° C | 26% | 1009 hPa | 0 mm | - | - | - |
| 1777217168 | 21.67° C | 25% | 1009.1 hPa | 0 mm | - | - | - |
| 1777216865 | 21.67° C | 25% | 1008.9 hPa | 0 mm | - | - | - |
| 1777216561 | 22.22° C | 25% | 1009 hPa | 0 mm | - | - | - |
| 1777216257 | 22.22° C | 24% | 1009.1 hPa | 0 mm | - | - | - |
| 1777215956 | 21.67° C | 25% | 1008.9 hPa | 0 mm | - | - | - |
| 1777215652 | 21.11° C | 25% | 1008.9 hPa | 0 mm | - | - | - |
| 1777215347 | 20.56° C | 25% | 1009 hPa | 0 mm | - | - | - |
| 1777215044 | 20.56° C | 25% | 1009 hPa | 0 mm | - | - | - |
| 1777214744 | 20° C | 25% | 1009.1 hPa | 0 mm | - | - | - |
| 1777214443 | 19.44° C | 25% | 1008.8 hPa | 0 mm | - | - | - |
| 1777214138 | 17.78° C | 26% | 1008.8 hPa | 0 mm | - | - | - |
| 1777213833 | 17.78° C | 26% | 1008.9 hPa | 0 mm | - | - | - |
| 1777213527 | 17.78° C | 26% | 1008.9 hPa | 0 mm | - | - | - |
| 1777213225 | 17.78° C | 25% | 1008.9 hPa | 0 mm | - | - | - |
| 1777212921 | 17.78° C | 25% | 1008.8 hPa | 0 mm | - | - | - |
| 1777212620 | 17.78° C | 25% | 1008.7 hPa | 0 mm | - | - | - |
| 1777212317 | 17.78° C | 25% | 1008.5 hPa | 0 mm | - | - | - |
| 1777212014 | 17.78° C | 25% | 1008.4 hPa | 0 mm | - | - | - |
| 1777211709 | 17.78° C | 25% | 1008.4 hPa | 0 mm | - | - | - |
| 1777211408 | 17.78° C | 24% | 1008.4 hPa | 0 mm | - | - | - |
| 1777211103 | 18.33° C | 24% | 1008.4 hPa | 0 mm | - | - | - |
* Rain latest hour (hover to see other rain measurements)
** Current wind speed in m/s (hover to see current wind gust speed)